TimeEDT,TemperatureF,Dew PointF,Humidity,Sea Level PressureIn,VisibilityMPH,Wind Direction,Wind SpeedMPH,Gust SpeedMPH,PrecipitationIn,Events,Conditions,WindDirDegrees,DateUTC
12:53 AM,24.1,15.1,69,29.92,10.0,NW,10.4,-,N/A,,Overcast,310,2013-03-21 04:53:00
1:36 AM,21.2,15.8,80,29.88,8.0,West,10.4,-,0.00,Snow,Light Snow,270,2013-03-21 05:36:00
1:53 AM,21.9,16.0,78,29.92,9.0,West,8.1,-,0.00,,Overcast,260,2013-03-21 05:53:00
2:30 AM,21.2,15.8,80,29.87,10.0,West,8.1,-,N/A,,Overcast,280,2013-03-21 06:30:00
2:38 AM,21.2,15.8,80,29.87,1.8,NW,15.0,18.4,0.00,Snow,Light Snow,310,2013-03-21 06:38:00
2:48 AM,19.4,14.0,80,29.87,3.0,WNW,9.2,-,0.00,Snow,Light Snow,290,2013-03-21 06:48:00
2:53 AM,19.9,14.0,78,29.92,7.0,WNW,9.2,-,0.00,Snow,Light Snow,300,2013-03-21 06:53:00
3:03 AM,21.2,14.0,74,29.87,10.0,WNW,9.2,-,0.00,,Overcast,300,2013-03-21 07:03:00
3:53 AM,19.9,12.9,74,29.90,3.0,West,9.2,-,0.00,Snow,Light Snow,280,2013-03-21 07:53:00
4:53 AM,19.9,14.0,78,29.89,10.0,WNW,5.8,-,0.00,,Overcast,290,2013-03-21 08:53:00
5:00 AM,19.4,14.0,80,29.85,7.0,WNW,8.1,-,0.00,Snow,Light Snow,300,2013-03-21 09:00:00
5:53 AM,19.0,8.1,62,29.90,10.0,West,10.4,-,0.00,,Overcast,280,2013-03-21 09:53:00
6:53 AM,18.0,8.1,65,29.90,10.0,West,5.8,-,N/A,,Scattered Clouds,260,2013-03-21 10:53:00
7:53 AM,17.1,10.0,74,29.90,10.0,West,5.8,-,N/A,,Partly Cloudy,260,2013-03-21 11:53:00
8:53 AM,18.0,7.0,62,29.91,10.0,WNW,9.2,-,N/A,,Clear,290,2013-03-21 12:53:00
9:53 AM,19.9,6.1,55,29.92,10.0,West,13.8,-,N/A,,Partly Cloudy,260,2013-03-21 13:53:00
10:53 AM,21.0,5.0,50,29.92,10.0,WNW,12.7,19.6,N/A,,Mostly Cloudy,290,2013-03-21 14:53:00
11:53 AM,23.0,5.0,46,29.92,10.0,West,12.7,21.9,N/A,,Overcast,280,2013-03-21 15:53:00
12:53 PM,23.0,3.9,44,29.91,10.0,West,16.1,24.2,N/A,,Overcast,270,2013-03-21 16:53:00
1:53 PM,24.1,6.1,46,29.92,10.0,WSW,13.8,25.3,N/A,,Overcast,250,2013-03-21 17:53:00
2:53 PM,25.0,7.0,46,29.91,10.0,West,11.5,-,N/A,,Overcast,260,2013-03-21 18:53:00
3:53 PM,27.0,9.0,47,29.91,10.0,WSW,10.4,19.6,N/A,,Overcast,250,2013-03-21 19:53:00
4:53 PM,27.0,9.0,47,29.91,10.0,WNW,12.7,-,N/A,,Overcast,300,2013-03-21 20:53:00
5:53 PM,28.0,10.0,47,29.91,10.0,WSW,13.8,23.0,N/A,,Overcast,250,2013-03-21 21:53:00
6:53 PM,27.0,12.0,53,29.93,10.0,West,13.8,23.0,N/A,,Overcast,260,2013-03-21 22:53:00
7:53 PM,26.1,14.0,60,29.94,10.0,West,17.3,21.9,N/A,,Overcast,270,2013-03-21 23:53:00
8:38 PM,26.6,15.8,64,29.89,10.0,WSW,11.5,23.0,N/A,,Overcast,250,2013-03-22 00:38:00
8:53 PM,26.1,16.0,66,29.95,10.0,West,12.7,-,N/A,,Overcast,260,2013-03-22 00:53:00
9:11 PM,26.6,15.8,64,29.89,10.0,West,11.5,-,N/A,,Overcast,260,2013-03-22 01:11:00
9:53 PM,26.1,16.0,66,29.95,10.0,West,16.1,21.9,N/A,,Overcast,260,2013-03-22 01:53:00
10:53 PM,26.1,17.1,69,29.96,10.0,West,16.1,20.7,N/A,,Overcast,260,2013-03-22 02:53:00
11:53 PM,26.1,17.1,69,29.96,8.0,West,15.0,21.9,0.00,Snow,Light Snow,260,2013-03-22 03:53:00